Satellite: NOAA-19
Catalog number: 33591
Epoch time:      12060.67531414
Element set:    0282
Inclination:      098.8554 deg
RA of node:       001.8620 deg
Eccentricity:    0.0013741
Arg of perigee:   331.3758 deg
Mean anomaly:     028.6649 deg
Mean motion:   14.11300382 rev/day
Decay rate:       4.51e-06 rev/day^2
Epoch rev:           15770
Checksum:              283

/EX
SB KEPS @ AMSAT  $ORB12061.M
Orbital Elements  12061.MISC

HR AMSAT ORBITAL ELEMENTS FOR MANNED AND MISCELLANEOUS SATELLITES
FROM WA5QGD FORT WORTH,TX March 1, 2012
Send SUBSCRIBE KEPS/UNSUBSCRIBE KEPS to majordomo@amsat.org only
BID: ORB12061.M
TO ALL RADIO AMATEURS BT

Satellite: HUBBLE
Catalog number: 20580
Epoch time:      12061.24282834
Element set:     953
Inclination:      028.4698 deg
RA of node:       129.7927 deg
Eccentricity:    0.0003125
Arg of perigee:   355.7915 deg
Mean anomaly:     004.2744 deg
Mean motion:   15.02224665 rev/day
Decay rate:      1.756e-05 rev/day^2
Epoch rev:           99848
Checksum:              314

Satellite: ISS
Catalog number: 25544
Epoch time:      12061.60134719
Element set:     112
Inclination:      051.6415 deg
RA of node:       301.5814 deg
Eccentricity:    0.0017720
Arg of perigee:   106.9991 deg
Mean anomaly:     253.3471 deg
Mean motion:   15.58676725 rev/day
Decay rate:     1.9589e-04 rev/day^2
Epoch rev:           16534
Checksum:              296

Satellite: CO-58
Catalog number: 28895
Epoch time:      12060.63612906
Element set:    0112
Inclination:      097.9329 deg
RA of node:       291.5897 deg
Eccentricity:    0.0018609
Arg of perigee:   129.9068 deg
Mean anomaly:     230.3773 deg
Mean motion:   14.60498246 rev/day
Decay rate:       6.63e-06 rev/day^2
Epoch rev:           33781
Checksum:              346

Satellite: FALCON
Catalog number: 30776
Epoch time:      12060.88014392
Element set:    0302
Inclination:      035.4321 deg
RA of node:       217.9662 deg
Eccentricity:    0.0001145
Arg of perigee:   144.0388 deg
Mean anomaly:     216.0406 deg
Mean motion:   15.06708017 rev/day
Decay rate:      3.373e-05 rev/day^2
Epoch rev:           27390
Checksum:              261

Satellite: MAST
Catalog number: 31126
Epoch time:      12060.98241875
Element set:    0402
Inclination:      097.8792 deg
RA of node:       078.3997 deg
Eccentricity:    0.0095093
Arg of perigee:   087.8923 deg
Mean anomaly:     273.3161 deg
Mean motion:   14.54044469 rev/day
Decay rate:       4.57e-06 rev/day^2
Epoch rev:           25854
Checksum:              333

Satellite: CAPE1
Catalog number: 31130
Epoch time:      12060.58192933
Element set:    0410
Inclination:      097.8870 deg
RA of node:       074.4787 deg
Eccentricity:    0.0103167
Arg of perigee:   101.5105 deg
Mean anomaly:     259.7689 deg
Mean motion:   14.52782108 rev/day
Decay rate:       4.31e-06 rev/day^2
Epoch rev:           25800
Checksum:              286

Satellite: COMPASS
Catalog number: 32787
Epoch time:      12060.83381684
Element set:     236
Inclination:      097.8134 deg
RA of node:       124.5365 deg
Eccentricity:    0.0016213
Arg of perigee:   058.4047 deg
Mean anomaly:     301.8737 deg
Mean motion:   14.83554968 rev/day
Decay rate:      1.707e-05 rev/day^2
Epoch rev:           20774
Checksum:              312

Satellite: AAUSAT2
Catalog number: 32788
Epoch time:      12060.82564694
Element set:     228
Inclination:      097.8134 deg
RA of node:       124.8526 deg
Eccentricity:    0.0016024
Arg of perigee:   059.1379 deg
Mean anomaly:     301.1396 deg
Mean motion:   14.83839776 rev/day
Decay rate:      2.066e-05 rev/day^2
Epoch rev:           20776
Checksum:              325

Satellite: DO-64
Catalog number: 32789
Epoch time:      12060.83607568
Element set:     242
Inclination:      097.8250 deg
RA of node:       126.5048 deg
Eccentricity:    0.0015762
Arg of perigee:   056.4007 deg
Mean anomaly:     303.8702 deg
Mean motion:   14.85019263 rev/day
Decay rate:      3.163e-05 rev/day^2
Epoch rev:           20779
Checksum:              308

Satellite: CO-66
Catalog number: 32791
Epoch time:      12060.64871676
Element set:    0230
Inclination:      097.8137 deg
RA of node:       124.1752 deg
Eccentricity:    0.0016773
Arg of perigee:   057.7563 deg
Mean anomaly:     302.5281 deg
Mean motion:   14.83049885 rev/day
Decay rate:      1.152e-05 rev/day^2
Epoch rev:           20765
Checksum:              316

Satellite: RS-30
Catalog number: 32953
Epoch time:      12061.27462518
Element set:     568
Inclination:      082.5071 deg
RA of node:       002.2400 deg
Eccentricity:    0.0018169
Arg of perigee:   180.0752 deg
Mean anomaly:     180.0330 deg
Mean motion:   12.43021231 rev/day
Decay rate:        1.0e-07 rev/day^2
Epoch rev:           17115
Checksum:              229

Satellite: TACSAT-3
Catalog number: 35001
Epoch time:      12060.96391961
Element set:    0888
Inclination:      040.4484 deg
RA of node:       024.6620 deg
Eccentricity:    0.0009162
Arg of perigee:   219.7324 deg
Mean anomaly:     140.2889 deg
Mean motion:   15.76685328 rev/day
Decay rate:    1.28461e-03 rev/day^2
Epoch rev:           15731
Checksum:              308

